Overview Statistics Trail Chart Weather Telemetry Raw packets
 

This is the latest recevied weather packets stored in our database for station/object K5SVV. If no packets are shown the sender has not sent any weather packets the latest 10 day(s).

<< 77 78 79 80 81 82 83 >>
Time Temp. Humidity Pressure Rain* Wind** Luminosity Snow
1788134393 36.11° C 40% 1012.1 hPa 0 mm - 43 W/m² -
1788134088 36.11° C 39% 1012.1 hPa 0 mm - 46 W/m² -
1788133783 36.11° C 39% 1012.4 hPa 0 mm - 50 W/m² -
1788133478 36.11° C 38% 1012.3 hPa 0 mm - 51 W/m² -
1788133174 36.11° C 38% 1012.2 hPa 0 mm - 58 W/m² -
1788132869 36.67° C 38% 1012.2 hPa 0 mm - 126 W/m² -
1788132565 36.67° C 38% 1012.3 hPa 0 mm - 70 W/m² -
1788132261 36.67° C 37% 1012.2 hPa 0 mm - 152 W/m² -
1788131958 36.67° C 37% 1012.4 hPa 0 mm - 83 W/m² -
1788131652 36.67° C 36% 1012.3 hPa 0 mm - 183 W/m² -
1788131352 36.67° C 36% 1012.5 hPa 0 mm - 198 W/m² -
1788131047 36.67° C 36% 1012.3 hPa 0 mm - 206 W/m² -
1788130746 36.67° C 36% 1012.3 hPa 0 mm - 226 W/m² -
1788130442 36.67° C 35% 1012.3 hPa 0 mm - 249 W/m² -
1788130136 36.11° C 36% 1012.4 hPa 0 mm - 248 W/m² -
1788129835 35° C 37% 1012.3 hPa 0 mm - 78 W/m² -
1788129532 35.56° C 37% 1012.5 hPa 0 mm - 65 W/m² -
1788129228 35.56° C 37% 1012.4 hPa 0 mm - 75 W/m² -
1788128927 36.11° C 37% 1012.4 hPa 0 mm - 78 W/m² -
1788128623 36.11° C 37% 1012.5 hPa 0 mm - 85 W/m² -
1788128318 36.67° C 36% 1012.7 hPa 0 mm - 93 W/m² -
1788128015 37.22° C 35% 1012.6 hPa 0 mm - 315 W/m² -
1788127710 37.78° C 35% 1012.7 hPa 0 mm - 429 W/m² -
1788127410 37.78° C 36% 1012.5 hPa 0 mm - 467 W/m² -
1788127107 37.22° C 36% 1012.4 hPa 0 mm - 494 W/m² -

* Rain latest hour (hover to see other rain measurements)
** Current wind speed in m/s (hover to see current wind gust speed)